www.pogodaiklimat.ru

Погода и климат >> Архив погоды >> Финляндия >> Остров Багаскар


ПОГОДА на Острове Багаскар

  • Прогноз погоды на Острове Багаскар
  • Монитор погоды на Острове Багаскар

АРХИВ ПОГОДЫ на Острове Багаскар

Время (UTC), дата Ветер
(напр.,м/с)
 
Видим.   Явления Облачность Т
(С)
Тd
(С)
f
(%)
Тe
(С)
Тes
(С)
Комфортность P
(гПа)
Po
(гПа)
Тmin
(С)
Tmax
(С)
R
(мм)
R24
(мм)
S
(см)
22 10.06 З 4-5
{7}
50 км ясно +12.2 +11.1 93 +10 +10 1021.7 1020.5
23 10.06 З 5 50 км ясно +11.8 +11.0 95 +9 +9 1021.9 1020.7
00 11.06 З 4-4
{6}
40 км ясно +11.3 +10.8 97 +9 +9 1021.8 1020.6
01 11.06 ЮЗ 4-5
{5}
28 км ясно +11.0 +10.6 97 +8 +8 1022.0 1020.8
02 11.06 З 3-4
{5}
30 км ясно +11.3 +11.0 98 +9 +9 1021.9 1020.7
03 11.06 З 4-5
{5}
50 км ясно +12.5 +11.6 94 +10 +11 1022.2 1021.0
04 11.06 ЮЗ 3 50 км ясно +13.1 +11.4 89 +12 +13 1022.4 1021.1
05 11.06 З 4-4
{5}
50 км ясно +14.5 +11.8 84 +13 +16 1022.8 1021.5
06 11.06 З 3-3
{5}
50 км 9/9
[]
+15.2 +11.9 81 +15 +15 1022.7 1021.5 +10.9 +15.2
07 11.06 З 3 45 км 9/9
[]
+16.4 +11.9 75 +16 +17 1022.7 1021.5
08 11.06 ЮЗ 4 50 км 9/9
[]
+17.0 +11.0 68 +17 +17 1023.0 1021.8
09 11.06 З 1-2
{4}
40 км 6/0
[]
+17.8 +9.7 59 +19 +30 1022.9 1021.7
10 11.06 ЮВ 1-2
{2}
50 км 3/0
[]
+17.9 +11.2 65 +19 +36 опасность
простуды
1022.9 1021.7
11 11.06 Ю 2 40 км ясно +18.7 +12.5 67 +20 +34 опасность
простуды
1022.6 1021.4
12 11.06 Ю 2-3
{4}
50 км 9/5
[]
+17.5 +12.8 74 +18 +22 1022.3 1021.1
13 11.06 Ю 3 50 км 9/6
[]
+18.2 +12.3 68 +19 +21 1022.5 1021.2
14 11.06 ЮВ 3-4
{4}
50 км 8/0
[]
+17.7 +11.6 67 +18 +22 1022.2 1021.0
15 11.06 ЮВ 4-5
{5}
50 км ясно +17.4 +11.0 66 +17 +21 1021.8 1020.6
16 11.06 ЮВ 4 50 км ясно +17.0 +11.9 72 +17 +19 1021.2 1020.0
17 11.06 В 3 50 км 5/0
[]
+15.8 +11.7 77 +15 +16 1021.3 1020.1
18 11.06 СВ 2-3
{4}
50 км 10/10
[]
+15.2 +11.4 78 +15 +15 1021.2 1020.0 +15.2 +19.5
19 11.06 СВ 2-3
{3}
50 км 10/0
[]
+15.2 +11.3 78 +15 +15 1021.4 1020.1
20 11.06 СВ 3 50 км 10/9
[]
+15.5 +10.7 73 +15 +15 1021.1 1019.9
21 11.06 СВ 4-5
{5}
50 км 10/0
[]
+15.6 +11.9 79 +15 +15 1021.1 1019.9
22 11.06 СВ 4-6
{6}
50 км 10/10
[]
+15.7 +9.8 68 +15 +15 1021.1 1019.9
23 11.06 СВ 7-12
{12}
50 км 10/0
[]
+16.0 +10.2 68 +15 +15 1021.8 1020.5
00 12.06 СВ 8-12
{12}
50 км 6/6
[]
+15.4 +8.3 63 +14 +14 1022.3 1021.1
01 12.06 СВ 8 50 км 9/9
[]
+14.8 +7.2 60 +13 +13 1022.9 1021.7
02 12.06 СВ 8 50 км 1/1
[]
+13.8 +6.4 61 +11 +11 1023.1 1021.8
03 12.06 СВ 9-12
{12}
50 км 9/9
[]
+13.1 +4.8 57 +10 +10 1023.1 1021.9
04 12.06 СВ 7 50 км 10/10
[]
+13.1 +5.4 60 +11 +11 1023.4 1022.2
05 12.06 СВ 7 50 км 9/9
[]
+13.5 +6.1 61 +11 +11 1024.0 1022.7
06 12.06 В 7-10
{10}
50 км 4/4
[]
+14.5 +7.0 61 +13 +14 1023.3 1022.0 +12.9 +16.4
07 12.06 В 9 50 км ясно +15.0 +6.2 56 +13 +14 1024.0 1022.8
08 12.06 В 9-12
{13}
50 км 1/0
[]
+15.4 +6.8 56 +13 +15 1024.6 1023.4
09 12.06 В 10-12
{13}
50 км ясно +15.4 +6.6 56 +13 +14 1024.9 1023.7
10 12.06 В 10 50 км ясно +15.3 +6.8 57 +13 +14 1025.1 1023.9
11 12.06 В 10 50 км 5/5
[]
+14.2 +8.1 67 +12 +12 1024.9 1023.6
12 12.06 В 11-13
{13}
50 км 1/1
[]
+15.0 +8.4 65 +13 +13 1024.6 1023.3
13 12.06 В 10-12
{14}
50 км 1/1
[]
+15.3 +8.0 62 +13 +14 1024.8 1023.6
14 12.06 В 9 50 км 8/4
[]
+13.8 +7.9 68 +11 +11 1024.3 1023.1
15 12.06 В 11-14
{14}
50 км 9/9
[]
+13.6 +7.9 68 +11 +11 1023.6 1022.4
16 12.06 В 9-13
{14}
50 км 9/0
[]
+13.4 +8.3 71 +11 +11 1024.2 1023.0
17 12.06 В 11-13
{14}
50 км 9/9 2000 м
[]
+13.0 +8.4 74 +10 +10 1023.8 1022.5
18 12.06 В 12-14
{14}
50 км {ливн. осадки, дождь} 9/9
[]
+13.0 +8.0 72 +9 +9 1023.5 1022.3 +13.0 +15.6
19 12.06 В 12 50 км 4/4
[]
+12.8 +8.3 74 +9 +9 1023.2 1021.9
20 12.06 В 13-17
{17}
50 км ясно +12.8 +7.2 69 +9 +9 1023.3 1022.1
21 12.06 В 15-18
{19}
50 км 10/0
[]
+12.7 +7.0 68 +9 +9 1023.0 1021.8
22 12.06 В 14 50 км 9/9
[]
+12.4 +8.2 76 +8 +8 1023.0 1021.7
23 12.06 В 14 50 км 9/9
[]
+12.3 +7.3 72 +8 +8 1022.8 1021.5
00 13.06 В 14-17
{19}
50 км 8/8
[]
+12.1 +8.2 77 +8 +8 1022.2 1021.0
01 13.06 В 14-16
{18}
50 км 1/0
[]
+12.1 +8.2 77 +8 +8 1021.7 1020.5
02 13.06 В 13-16
{18}
50 км 3/1 1000 м
[]
+12.0 +8.5 79 +8 +8 1021.0 1019.7
03 13.06 В 13-17
{17}
45 км слаб. ливневой дождь 10/0 1000 м
[]
+12.0 +8.8 81 +8 +8 1020.5 1019.3
04 13.06 В 13 50 км слаб. ливневой дождь 9/8 1000 м
[]
+11.8 +8.9 82 +8 +8 1019.4 1018.2
05 13.06 В 16-18
{22}
45 км слаб. ливневой дождь 9/4 300 м
[]
+11.8 +9.1 84 +7 +7 1018.4 1017.2
06 13.06 В 13-17
{17}
50 км {ливн. осадки, дождь} 5/5 1000 м
[]
+12.5 +9.1 80 +9 +9 1018.9 1017.6 +11.4 +13.0
07 13.06 В 13-16
{16}
50 км 9/9 300 м
[]
+12.4 +9.2 81 +8 +8 1019.2 1017.9
08 13.06 В 12-16
{18}
40 км 6/0 300 м
[]
+12.8 +9.6 81 +9 +9 1018.4 1017.2
09 13.06 В 15-19
{19}
14 км слаб. дождь {морось} 10/0 300 м
[]
+11.5 +10.1 91 +7 +7 1018.3 1017.1
10 13.06 В 16 16 км слаб. ливневой дождь 10/10 300 м
[]
+11.4 +10.5 94 +6 +6 1017.1 1015.9
11 13.06 В 10 22 км слаб. ливневой дождь 10/10 300 м
[]
+12.0 +10.7 92 +8 +8 1018.9 1017.7
12 13.06 В 11-14
{14}
45 км {ливн. осадки, дождь} 9/9 300 м
[]
+13.1 +11.5 90 +10 +10 1018.4 1017.2
13 13.06 В 13 40 км 5/5 600 м
[]
+13.4 +11.4 88 +10 +10 1017.0 1015.8
14 13.06 В 12-15
{15}
45 км 9/9 600 м
[]
+13.6 +11.3 86 +10 +10 1016.8 1015.6
15 13.06 В 12-15
{15}
50 км 10/0 600 м
[]
+13.3 +11.3 88 +10 +10 1016.2 1015.0
16 13.06 В 12 4000 м дождь 10/8 300 м
[]
+12.5 +12.2 98 +9 +9 1015.9 1014.7
17 13.06 В 11-13
{14}
35 км в посл. час дождь 6/1
[]
+12.8 +12.3 97 +9 +9 1015.1 1013.9
18 13.06 В 10-13
{13}
45 км слаб. морось {дождь} 10/10
[]
+12.9 +11.8 93 +9 +9 1014.7 1013.5 +11.3 +13.8
19 13.06 В 7 40 км в посл. час морось 9/3 1000 м
[]
+12.7 +12.0 96 +10 +10 1015.7 1014.4
20 13.06 В 3 40 км в посл. час морось 8/6 2000 м
[]
+12.9 +12.5 97 +11 +11 1015.1 1013.8
21 13.06 В 2-4
{5}
35 км {ливн. осадки, морось} 9/0
[]
+13.4 +12.9 97 +13 +13 1015.0 1013.8
22 13.06 В 3 22 км ясно +13.5 +13.2 98 +12 +12 1014.8 1013.5
23 13.06 В 5-6
{6}
14 км ясно +13.0 +12.8 99 +11 +11 1014.7 1013.5
00 14.06 В 3-4
{6}
12 км {ливн. осадки, морось} ясно +12.9 +12.7 99 +11 +11 1014.7 1013.5
01 14.06 В 3 13 км 10/10 200 м
[]
+12.4 +12.2 99 +11 +11 1015.0 1013.7
02 14.06 В 2 8000 м дымка 10/10 50 м
[]
+12.6 +12.4 99 +12 +12 1014.8 1013.5
03 14.06 В 3-3
{4}
9000 м дымка 10/0 50 м
[]
+13.0 +12.9 99 +11 +12 1014.6 1013.4
04 14.06 ЮВ 2 500 м туман ?/? +12.7 +12.6 99 +12 +12 1014.7 1013.5
05 14.06 Ю 1-5
{5}
3700 м в посл. час туман 10/0 50 м
[]
+13.0 +12.9 99 +13 +13 1014.9 1013.6
06 14.06 З 4-5
{7}
5000 м дымка {туман} 10/10 <50 м
[]
+12.8 +12.7 99 +11 +11 1014.8 1013.5 +12.4 +13.6
07 14.06 ЮЗ 5-5
{6}
10 км 10/0 50 м
[]
+12.6 +12.2 97 +10 +10 1015.1 1013.9
08 14.06 ЮЗ 5 7000 м дымка 10/10 <50 м
[]
+12.5 +12.1 97 +10 +10 1015.7 1014.5
09 14.06 ЮЗ 6-7
{7}
5000 м дымка 9/0 50 м
[]
+12.5 +12.2 98 +10 +13 1016.5 1015.3
10 14.06 ЮЗ 7 10 км 10/10 <50 м
[]
+12.7 +12.2 97 +10 +10 1016.7 1015.5
11 14.06 ЮЗ 7 35 км 10/10 50 м
[]
+13.3 +12.0 92 +11 +11 1016.7 1015.5
12 14.06 З 8-10
{10}
19 км {дымка} 10/10 50 м
[]
+13.0 +12.1 94 +10 +10 1016.8 1015.6
13 14.06 З 7-9
{11}
17 км 10/10 50 м
[]
+12.8 +12.1 96 +10 +10 1016.7 1015.5
14 14.06 З 8 19 км 10/10 50 м
[]
+13.2 +12.3 94 +10 +10 1016.7 1015.5
15 14.06 З 8-9
{9}
20 км 10/10 50 м
[]
+13.1 +12.2 94 +10 +10 1016.7 1015.5
16 14.06 З 8 40 км 10/10 50 м
[]
+13.2 +12.3 94 +10 +10 1016.6 1015.4
17 14.06 З 7 30 км 10/10 200 м
[]
+13.2 +12.5 96 +10 +10 1016.6 1015.4
18 14.06 З 8-10
{11}
21 км 10/10 200 м
[]
+13.0 +12.4 96 +10 +10 1016.5 1015.3 +12.3 +13.7
19 14.06 З 7 26 км 10/10 300 м
[]
+13.0 +12.5 97 +10 +10 1016.9 1015.7
20 14.06 З 4 45 км 10/10 300 м
[]
+13.8 +12.5 92 +12 +12 1017.3 1016.0
21 14.06 З 6-8
{8}
35 км 6/0 300 м
[]
+13.0 +12.4 96 +10 +10 1017.5 1016.3
22 14.06 З 5-8
{9}
50 км 10/0 300 м
[]
+13.2 +11.8 91 +11 +11 1018.0 1016.8
23 14.06 З 6 50 км 10/10 200 м
[]
+13.2 +11.8 91 +11 +11 1018.0 1016.8
00 15.06 СЗ 6-9
{9}
50 км 9/9 200 м
[]
+13.1 +11.7 91 +11 +11 1017.8 1016.5
01 15.06 З 6 50 км 10/10 200 м
[]
+12.7 +11.5 92 +10 +10 1017.5 1016.3
02 15.06 З 7-8
{9}
50 км 9/9 200 м
[]
+12.5 +11.5 94 +10 +10 1017.7 1016.4
03 15.06 З 5-7
{9}
50 км 9/0 200 м
[]
+12.9 +11.8 93 +11 +11 1017.4 1016.2
04 15.06 З 5 50 км 9/9 200 м
[]
+13.4 +12.1 92 +11 +11 1017.3 1016.1
05 15.06 СЗ 4 50 км 9/9 200 м
[]
+14.2 +12.2 88 +13 +13 1017.2 1016.0
06 15.06 СЗ 2-3
{6}
50 км 8/8 300 м
[]
+15.4 +12.8 84 +15 +17 1017.2 1015.9 +12.4 +15.4
07 15.06 ЮЗ 5 30 км 9/9 <50 м
[]
+14.2 +12.4 89 +12 +13 1017.1 1015.9
08 15.06 ЮЗ 7 23 км 10/10 <50 м
[]
+13.5 +12.3 92 +11 +11 1017.6 1016.4
09 15.06 ЮЗ 6-7
{8}
7000 м дымка 10/0 <50 м
[]
+12.7 +11.6 93 +10 +13 1017.9 1016.7
10 15.06 З 7-7
{9}
35 км 10/10 <50 м
[]
+14.4 +12.1 86 +12 +12 1017.8 1016.5
11 15.06 ЮЗ 3 40 км 8/8 <50 м
[]
+13.5 +11.3 87 +12 +15 1017.4 1016.2
12 15.06 З 6-8
{8}
50 км {дымка} 3/3 <50 м
[]
+14.7 +12.6 87 +13 +16 1017.1 1015.9
13 15.06 З 8 50 км 4/0
[]
+16.8 +13.6 81 +15 +17 1017.2 1015.9
14 15.06 З 6-8
{8}
40 км ясно +17.3 +13.1 76 +16 +20 1016.7 1015.5
15 15.06 З 6-9
{13}
45 км ясно +16.9 +13.0 78 +16 +18 1016.6 1015.4
16 15.06 З 7 50 км ясно +17.4 +13.1 76 +16 +17 1016.5 1015.3
17 15.06 З 6 50 км ясно +15.6 +12.9 84 +14 +15 1016.0 1014.8
18 15.06 З 8-9
{10}
50 км ясно +14.5 +12.6 88 +12 +12 1016.2 1015.0 +12.5 +18.6
19 15.06 З 6 50 км ясно +14.4 +13.1 92 +12 +12 1016.2 1015.0
20 15.06 З 4 50 км ясно +15.2 +13.3 88 +14 +14 1016.2 1015.0
21 15.06 СЗ 4-5
{5}
50 км ясно +15.3 +13.0 86 +14 +14 1016.0 1014.8
22 15.06 СЗ 4 50 км ясно +14.7 +12.8 88 +13 +13 1016.0 1014.8
23 15.06 СВ 2-2
{5}
50 км ясно +13.3 +12.4 94 +12 +12 1016.2 1015.0
00 16.06 ЮЗ 1-2
{2}
50 км ясно +13.5 +12.4 93 +14 +14 1016.4 1015.1
01 16.06 СЗ 2 50 км ясно +12.8 +12.3 97 +12 +12 1016.2 1015.0
02 16.06 СВ 2 29 км ясно +12.6 +12.3 98 +12 +12 1015.9 1014.7
03 16.06 В 2-3
{3}
50 км ясно +13.6 +12.6 94 +13 +14 1015.9 1014.7
04 16.06 ЮВ 2 50 км ясно +13.6 +12.5 93 +13 +15 1016.0 1014.8
05 16.06 З 1-1
{3}
50 км 6/0 2000 м
[]
+14.4 +12.6 89 +15 +17 1016.0 1014.8
06 16.06 Ю 1-2
{2}
50 км 1/1 2000 м
[]
+15.0 +13.0 88 +15 +22 1016.0 1014.7 +12.5 +15.6
07 16.06 З 2-2
{2}
50 км ясно +16.4 +12.7 79 +17 +25 1016.0 1014.8
08 16.06 ЮЗ 4 50 км ясно +16.2 +12.6 79 +15 +23 1015.9 1014.7
09 16.06 ЮЗ 4-5
{5}
45 км ясно +16.1 +12.0 77 +15 +24 1015.7 1014.5
10 16.06 ЮЗ 5 45 км ясно +16.3 +12.6 79 +15 +23 1015.7 1014.5
11 16.06 ЮЗ 7 35 км ясно +18.5 +14.0 75 +18 +22 1015.5 1014.3
12 16.06 З 8-9
{10}
50 км ясно +19.9 +13.2 65 +21 +23 комфорт 1015.0 1013.8
13 16.06 З 8 50 км ясно +19.4 +13.4 68 +20 +22 1014.9 1013.7
14 16.06 З 8-9
{10}
50 км ясно +18.5 +13.6 73 +18 +20 1014.5 1013.3
15 16.06 З 7-7
{9}
45 км ясно +18.1 +13.6 75 +17 +19 1014.0 1012.8
16 16.06 З 7-9
{9}
50 км ясно +18.3 +12.9 71 +18 +19 1013.7 1012.5
17 16.06 З 8 50 км ясно +17.3 +13.0 76 +16 +16 1013.6 1012.4
18 16.06 З 6-7
{9}
50 км ясно +16.0 +13.0 82 +15 +15 1013.5 1012.3 +14.8 +20.0
19 16.06 З 6 50 км ясно +15.3 +13.2 87 +14 +14 1013.7 1012.5
20 16.06 З 4-5
{6}
50 км ясно +14.8 +13.4 91 +14 +14 1013.6 1012.4
21 16.06 З 4-5
{7}
50 км ясно +14.2 +13.1 93 +13 +13 1013.7 1012.5
22 16.06 З 3 50 км ясно +14.3 +13.2 93 +13 +13 1013.8 1012.6
23 16.06 З 4 50 км ясно +14.7 +12.5 87 +13 +13 1013.9 1012.7
00 17.06 З 3-4
{5}
50 км ясно +14.8 +11.9 83 +14 +14 1013.9 1012.7
01 17.06 СЗ 3 50 км ясно +14.6 +11.3 81 +14 +14 1013.7 1012.4
02 17.06 З 3-2
{4}
50 км 3/0
[]
+14.2 +10.9 81 +13 +13 1013.7 1012.5
03 17.06 З 3-3
{4}
50 км 10/0
[]
+15.1 +12.7 86 +14 +15 1013.5 1012.3
04 17.06 З 4 50 км 10/10
[]
+14.9 +12.8 87 +14 +14 1013.5 1012.3
05 17.06 З 5-5
{7}
50 км 9/0
[]
+15.2 +12.8 86 +14 +15 1013.3 1012.1
06 17.06 З 5-6
{7}
50 км 9/0
[]
+16.3 +13.4 83 +15 +17 1013.2 1012.0 +14.0 +16.4
07 17.06 З 6 50 км 9/0
[]
+16.9 +13.4 80 +16 +18 1013.3 1012.1
08 17.06 З 7 50 км 9/9
[]
+17.5 +13.9 79 +17 +17 1013.4 1012.2
09 17.06 З 7-8
{9}
50 км 9/0
[]
+18.3 +14.3 77 +18 +20 1013.3 1012.1
10 17.06 З 8 45 км 9/9
[]
+18.0 +13.9 77 +17 +17 1013.2 1012.0
11 17.06 З 9 45 км 9/9
[]
+17.5 +14.0 80 +16 +16 1013.4 1012.2
12 17.06 З 10-12
{12}
50 км 9/9
[]
+17.9 +14.3 79 +17 +17 1013.3 1012.1
13 17.06 З 10 45 км 9/9
[]
+18.5 +14.3 77 +18 +18 1013.3 1012.1
14 17.06 З 9-12
{12}
45 км 1/1
[]
+17.8 +13.4 75 +17 +17 1013.2 1012.0
15 17.06 З 10-12
{13}
45 км ясно +16.7 +12.8 78 +15 +15 1013.3 1012.1
16 17.06 З 10 50 км ясно +16.4 +12.5 78 +15 +15 1013.2 1012.0
17 17.06 З 9 50 км 3/3
[]
+15.9 +12.3 79 +14 +14 1013.2 1012.0
18 17.06 З 8-9
{11}
50 км ясно +14.5 +12.1 86 +12 +12 1013.4 1012.2 +14.5 +18.8
19 17.06 З 8-10
{10}
50 км ясно +13.9 +12.0 88 +11 +11 1013.3 1012.1
20 17.06 З 8-9
{10}
30 км ясно +13.5 +12.2 92 +11 +11 1013.5 1012.3

 

Местоположение метеостанции Остров Багаскар (Финляндия): широта 59.93 долгота 24.01 высота над уровнем моря 12 м.

В архиве по умолчанию представлена погода на Острове Багаскар за последнюю неделю. Архивные данные за месяц целиком и за предыдущие месяцы, начиная с января 2011 года, Вы можете получить, выбрав интересующий диапазон дат из раскрывающегося списка и нажав кнопку "Ввод!".


*Определитесь, кто Вы:
робот инопланетянин человек

Внимание! Время в таблицах - всемирное. Для получения местного времени необходимо прибавить поправку, которая равна 1 ч.

Смотрите также архив погоды в соседних городах и на ближайших метеорологических станциях:

Погода на Острове Мякилюото (Финляндия) (19 км)
Погода на Юссаро (Финляндия) (27 км)
Погода в Лохья Порла (Финляндия) (35 км)
Погода в Твярминне (Финляндия) (44 км)
Погода в Эспо Нууксио (Финляндия) (51 км)
Погода на Хельсинском маяке (Финляндия) (51 км)
Погода в Эспо Тапиола (Финляндия) (51 км)
Погода на Острове Хармая (Финляндия) (57 км)
Погода в Вихти (Финляндия) (59 км)
Погода в Хельсинки Кайсаниеми (Финляндия) (59 км)

Пояснения к столбцам:

Ветер - указаны скорость ветра в м/с - средняя за 10 мин, порывы в срок и между сроками (в фигурных скобках) и направление, откуда дует ветер: С - северный, СВ - северо-восточный, В - восточный, ЮВ - юго-восточный, Ю - южный, ЮЗ - юго-западный, З - западный, СЗ - северо-западный.
Видимость - горизонтальная дальность видимости в метрах или километрах. При видимости от 1 до 10 км при отсутствии осадков обычно наблюдается дымка, при ухудшении видимости до 1 км и менее - туман. В сухую погоду видимость может ухудшаться дымом, пылью или мглою.
Явления - указаны атмосферные явления, наблюдавшиеся в срок или в последний час перед сроком; фигурными скобками обозначены явления, наблюдавшиеся между сроками (за 1-3 часа до срока); квадратными скобками обозначены град или гололедные отложения с указанием их диаметра в мм.
Облачность - указаны через наклонную черту общая и нижняя облачность в баллах и высота нижней границы облаков в метрах; квадратными скобками обозначены формы облаков: Ci - перистые, Cs - перисто-слоистые, Cc - перисто-кучевые, Ac - высококучевые, As - высокослоистые, Sc - слоисто-кучевые, Ns - слоисто-дождевые, Cu - кучевые, Cb - кучево-дождевые. Подробнее классификацию облаков см. в Атласе облаков (PDF).
T - Температура воздуха - температура, измеренная на высоте 2 м над землей.
Td - Температура точки росы - температура, при понижении до которой содержащийся в воздухе водяной пар достигнет насыщения.
f - Относительная влажность воздуха - влажноcть воздуха, измеренная на высоте 2 м над землей.
Te - Эффективная температура - температура, которую ощущает одетый по сезону человек в тени. Характеристика душности погоды. При расчете учитывается влияние влажности воздуха и скорости ветра на теплоощущения человека.
Tes - Эффективная температура на солнце - температура, которую ощущает человек, с поправкой на солнечный нагрев. Характеристика знойности погоды. Зависит от высоты солнца над горизонтом, облачности и скорости ветра. Ночью, в пасмурную погоду, а также при ветре 12 м/с и более поправка равна нулю.
P - Атмосферное давление - приведенное к уровню моря атмосферное давление.
Po - Атмосферное давление - измеренное на уровне метеостанции атмосферное давление.
Tmin - Минимальная температура - минимум температуры воздуха на высоте 2 м над землей.
Tmax - Максимальная температура - максимум температуры воздуха на высоте 2 м над землей.
R - Количество осадков - Количество выпавших осадков за период времени, мм. При наведении курсора мыши на число - период времени, за который выпало указанное количество осадков.
R24 - Количество осадков - Количество выпавших осадков за 24 часа, мм.
S - Снежный покров - Высота снежного покрова, см. При наведении курсора мыши на число - состояние снежного покрова и степень покрытия местности в баллах.